Regional Weather Roundup
Issued by NWS Midland/Odessa, TX

Skip options and go directly to product.
Home | Oldest Version | Previous Version | Current Version | All | Text Only | Save Text | Print | Product List | Glossary Off

Skip product version selection by date and time.   

878
ASUS44 KMAF 280510
RWRMAF
MIDLAND AREA WEATHER ROUNDUP
NATIONAL WEATHER SERVICE MIDLAND TX
1100 PM CST THU NOV 27 2014

...IN SOUTHWEST TEXAS AND SOUTHEAST NEW MEXICO...

CITY           SKY/WX    TMP DP  RH WIND       PRES   REMARKS
ALPINE         CLEAR     44  24  45 CALM      30.40S
ANDREWS        FAIR      47  29  48 S14       30.28F
ARTESIA        NOT AVBL
BIG SPRING     CLEAR     46  29  50 SE10      30.32S
CARLSBAD       CLEAR     42  30  62 S7        30.26F WCI  38
DRYDEN           N/A     48  36  63 NE5       30.32S
FORT STOCKTON  CLEAR     50  33  52 S14       30.30F
GUAD PASS      NOT AVBL
HOBBS          CLEAR     41  28  60 S8        30.29F WCI  36
MARFA          PTCLDY    30  18  59 NW5       30.38S WCI  25
MIDLAND AIRPK  CLEAR     51  31  46 S12       30.30F
MIDLAND INTL   CLEAR     49  30  48 S9        30.30R
ODESSA         CLEAR     49  29  46 S12       30.31R
PECOS          CLEAR     37  28  70 NW5       30.29R WCI  33
PRESIDIO       FAIR      54  27  36 N10       30.30R
SEMINOLE       CLEAR     42  29  59 SW8       30.28F WCI  38
SNYDER         CLEAR     41  32  70 S8        30.30S WCI  36
WINK           CLEAR     47  28  47 SE8       30.28R
$$
...OTHER STATIONS IN TEXAS...

CITY           SKY/WX    TMP DP  RH WIND       PRES   REMARKS
ABILENE        CLEAR     50  31  48 S12       30.30F
AMARILLO       PTCLDY    42  30  62 S14       30.20F WCI  35
AUSTIN         CLEAR     38  36  92 CALM      30.40S
BROWNSVILLE    PTCLDY    56  54  93 CALM      30.38S
CORPUS CHRISTI PTCLDY    60  56  86 E7        30.38F
DALLAS FTW     CLEAR     44  27  51 S6        30.36S
DEL RIO        CLEAR     51  37  58 E7        30.36R
EL PASO        CLEAR     48  21  34 CALM      30.30R
HOUSTON INT    CLEAR     45  39  79 CALM      30.41F
LUBBOCK        CLEAR     47  28  47 SW10      30.26S
SAN ANGELO     CLEAR     48  34  58 S9        30.32S
SAN ANTONIO    CLEAR     45  38  76 NW3       30.40S
WACO           CLEAR     37  34  89 SW3       30.39S
WICHITA FALLS  NOT AVBL
$$
...OTHER LOCATIONS IN NEW MEXICO...

CITY           SKY/WX    TMP DP  RH WIND       PRES   REMARKS
ALAMAGORDO     CLEAR     43  23  45 SE5       30.32S
ALBUQUERQUE    PTCLDY    41  20  43 E5        30.34S WCI  38
CANNON AFB     CLEAR     44  28  53 W9        30.24F WCI  39
CLOVIS         CLEAR     37  23  56 SW6       30.24S WCI  33
HOLLOMAN AFB   CLEAR     39  21  47 E5        30.30S WCI  36
ROSWELL        CLEAR     36  28  73 W6        30.27S WCI  31
RUIDOSO        CLEAR     45   9  23 W8        30.38F
SANTA FE       PTCLDY    31  18  58 CALM      30.35R
TRUTH OR CONSE CLEAR     45  20  36 W9        30.32S
TUCUMCARI      PTCLDY    47  29  49 SW7       30.19S
$$

USA.gov is the U.S. government's official web portal to all federal, state and local government web resources and services.